MDT,Max TemperatureF,Mean TemperatureF,Min TemperatureF,Max Dew PointF,MeanDew PointF,Min DewpointF,Max Humidity, Mean Humidity, Min Humidity, Max Sea Level PressureIn, Mean Sea Level PressureIn, Min Sea Level PressureIn, Max VisibilityMiles, Mean VisibilityMiles, Min VisibilityMiles, Max Wind SpeedMPH, Mean Wind SpeedMPH, Max Gust SpeedMPH,PrecipitationIn, CloudCover, Events, WindDirDegrees
2010-10-1,86,75,63,48,44,39,52,36,20,30.29,30.05,29.93,10,10,10,23,6,29,T,3,Rain-Thunderstorm,132
2010-10-2,84,72,60,54,46,41,60,42,24,30.28,30.06,29.96,10,10,10,31,11,37,0.08,5,Rain-Thunderstorm,91
2010-10-3,76,66,56,49,48,45,77,57,36,30.17,30.08,29.99,10,10,10,22,7,26,T,5,,336
2010-10-4,77,68,58,51,46,38,77,52,26,30.10,30.02,29.94,10,10,10,20,6,29,0.01,4,Rain,205
2010-10-5,74,66,57,50,47,44,72,54,35,30.16,30.08,30.02,10,10,10,23,7,25,T,5,Rain,179
2010-10-6,80,68,56,50,44,37,77,50,23,30.28,30.13,30.05,10,10,10,24,8,31,0.00,3,,96
2010-10-7,80,68,55,47,42,35,67,44,21,30.19,30.08,29.99,10,10,10,23,8,26,0.00,1,,165
2010-10-8,79,67,54,41,31,16,47,29,10,30.08,30.01,29.93,10,10,10,21,6,28,0.00,1,,255
2010-10-9,74,62,49,30,27,25,46,31,16,30.15,30.06,29.97,10,10,10,21,8,26,0.00,1,,356
2010-10-10,72,61,50,33,29,24,50,34,18,30.06,29.97,29.88,10,10,10,14,6,18,0.00,1,,353
2010-10-11,73,60,47,32,31,27,50,36,22,30.03,29.96,29.90,10,10,10,12,4,15,0.00,0,,340
2010-10-12,75,62,49,36,32,29,48,33,18,30.19,30.09,29.99,10,10,10,28,9,36,0.00,1,,34
2010-10-13,72,63,54,41,38,33,59,43,27,30.35,30.25,30.19,10,10,10,26,8,33,0.00,1,,89
2010-10-14,76,63,49,42,39,35,68,46,23,30.34,30.23,30.12,10,10,10,9,3,12,0.00,1,,96
2010-10-15,76,63,49,36,32,28,54,36,18,30.18,30.08,29.98,10,10,10,10,4,14,0.00,2,,160
2010-10-16,76,63,50,34,29,24,41,28,15,30.11,30.03,29.96,10,10,10,12,4,13,0.00,3,,136
2010-10-17,76,62,48,35,33,30,50,35,19,30.08,29.97,29.88,10,10,10,13,3,15,0.00,3,,188
2010-10-18,74,64,53,43,34,30,53,37,20,29.97,29.90,29.83,10,10,10,23,7,28,T,6,Rain,17
2010-10-19,73,62,50,41,37,32,63,44,24,30.03,29.96,29.90,10,10,10,16,5,20,0.00,1,,13
2010-10-20,75,63,50,52,41,33,59,43,27,30.13,29.97,29.89,10,10,9,35,11,40,0.10,4,Rain-Thunderstorm,53
2010-10-21,66,58,50,52,45,38,83,64,44,30.12,29.91,29.76,10,10,6,22,8,28,0.07,6,Rain-Thunderstorm,243
2010-10-22,60,53,46,42,38,35,80,60,40,29.90,29.86,29.81,10,10,10,16,7,23,T,6,,221
2010-10-23,63,54,44,39,37,34,76,55,34,29.97,29.90,29.84,10,10,10,20,8,23,T,5,,232
2010-10-24,67,55,42,39,36,32,82,56,29,30.04,29.93,29.80,10,10,10,12,5,16,0.00,4,,220
2010-10-25,66,55,43,41,34,16,59,44,28,29.76,29.64,29.47,10,10,10,36,15,45,T,5,,259
2010-10-26,62,48,33,23,20,16,61,40,19,29.91,29.81,29.71,10,10,10,25,9,31,0.00,1,,299
2010-10-27,56,49,41,23,15,3,45,30,14,30.40,30.12,29.83,10,10,10,23,11,32,0.00,4,,346
2010-10-28,63,48,32,24,17,12,45,31,17,30.57,30.45,30.37,10,10,10,13,4,17,0.00,1,,17
2010-10-29,69,54,38,33,27,23,54,38,22,30.37,30.25,30.11,10,10,10,9,5,13,0.00,1,,48
2010-10-30,77,61,45,35,31,20,60,39,18,30.12,29.99,29.81,10,10,10,24,8,30,0.00,1,,163
2010-10-31,67,57,46,28,24,19,45,32,19,30.08,30.00,29.93,10,10,10,16,5,20,0.00,1,,336